FW1901 Weather Reports


time (UTC)temp
C
wind
direction
speed
KPH
gust
KPH
rain 1hr
cm
rain 24hr
cm
rain mn
cm
humidity
%
barometer
mb
20260509084605 12 3 0.0 0.0 0.03 0.79 0.10 78 1005.7
20260509084105 12 3 0.0 0.0 0.03 0.79 0.10 78 1005.7
20260509083605 12 3 0.0 0.0 0.03 0.79 0.10 78 1005.8
20260509083105 12 3 0.0 0.0 0.03 0.79 0.10 78 1005.8
20260509081606 12 3 0.0 0.0 0.03 0.79 0.10 78 1005.9
20260509081105 12 3 0.0 0.0 0.00 0.76 0.08 78 1005.8
20260509080605 12 3 0.0 0.0 0.00 0.76 0.08 78 1005.9
20260509080105 12 3 0.0 0.0 0.00 0.76 0.08 78 1005.9
20260509074605 12 3 0.0 0.0 0.00 0.76 0.08 78 1006.0
20260509074106 12 3 0.0 0.0 0.00 0.76 0.08 78 1006.0
20260509073605 12 3 0.0 0.0 0.03 0.76 0.08 78 1006.0
20260509073106 12 3 0.0 0.0 0.03 0.76 0.08 78 1005.9
20260509071606 12 3 0.0 0.0 0.03 0.76 0.08 78 1006.0
20260509071105 12 3 0.0 0.0 0.03 0.76 0.08 78 1005.9
20260509070605 12 3 0.0 0.0 0.03 0.76 0.08 78 1006.1
20260509070105 12 3 0.0 0.0 0.03 0.76 0.08 78 1006.2
20260509064605 12 3 0.0 0.0 0.05 0.76 0.08 78 1006.4
20260509064105 12 3 0.0 0.0 0.05 0.76 0.08 78 1006.5
20260509063605 12 3 0.0 0.0 0.03 0.74 0.05 78 1006.6
20260509063105 12 3 0.0 0.0 0.03 0.74 0.05 78 1006.7
20260509061606 12 3 0.0 0.0 0.03 0.74 0.05 78 1006.8
20260509061105 12 3 0.0 0.0 0.03 0.74 0.05 78 1006.8
20260509060606 12 3 0.0 0.0 0.03 0.74 0.05 78 1006.9
20260509060106 12 3 0.0 0.0 0.03 0.74 0.05 78 1006.9
20260509054105 12 3 0.0 0.0 0.00 0.71 0.03 78 1007.4
20260509053105 12 3 0.0 0.0 0.00 0.71 0.03 78 1007.5
20260509051105 12 3 0.0 0.0 0.00 0.71 0.03 78 1007.5
20260509050605 12 3 0.0 0.0 0.03 0.71 0.03 78 1007.5
20260509044105 12 3 0.0 0.0 0.03 0.71 0.03 79 1007.3
20260509043605 12 3 0.0 0.0 0.03 0.71 0.03 79 1007.4
20260509043106 12 3 0.0 0.0 0.03 0.71 0.03 79 1007.3
20260509041105 12 3 0.0 0.0 0.03 0.71 0.03 79 1007.4
20260509040105 12 3 0.0 0.0 0.00 0.69 0.00 79 1007.5
20260509034605 12 3 0.0 0.0 0.03 0.69 0.69 79 1007.4
20260509034105 12 3 0.0 0.0 0.03 0.69 0.69 79 1007.4
20260509033605 12 3 0.0 0.0 0.03 0.69 0.69 80 1007.3
20260509033105 12 3 0.0 0.0 0.03 0.69 0.69 80 1007.3
20260509031105 12 3 0.0 0.0 0.05 0.69 0.69 80 1007.3
20260509030605 12 3 0.0 1.6 0.05 0.69 0.69 80 1007.3
20260509030105 12 11 0.0 1.6 0.05 0.69 0.69 80 1007.4
20260509024605 12 224 0.0 4.8 0.03 0.66 0.66 81 1007.6
20260509024104 12 183 1.6 4.8 0.03 0.66 0.66 81 1007.5
20260509023605 12 202 3.2 4.8 0.03 0.66 0.66 81 1007.6
20260509021105 12 273 4.8 14.5 0.03 0.64 0.64 81 1007.8
20260509020605 12 294 3.2 14.5 0.03 0.64 0.64 81 1007.7
20260509014604 12 229 3.2 19.3 0.05 0.64 0.64 80 1007.5
20260509013605 12 252 4.8 12.9 0.08 0.64 0.64 80 1007.5
20260509013105 12 260 4.8 12.9 0.10 0.64 0.64 80 1007.4
20260509011605 12 271 3.2 9.7 0.08 0.61 0.61 80 1007.5
20260509011105 12 263 3.2 9.7 0.10 0.61 0.61 80 1007.5
20260509010604 12 239 4.8 9.7 0.10 0.61 0.61 80 1007.4
20260509010105 12 223 3.2 12.9 0.10 0.61 0.61 80 1007.5
20260509004605 12 228 3.2 11.3 0.13 0.58 0.58 80 1007.6
20260509004105 12 257 3.2 11.3 0.13 0.56 0.56 80 1007.6
20260509003605 12 268 4.8 11.3 0.15 0.56 0.56 80 1007.6
20260509003105 12 268 3.2 9.7 0.15 0.53 0.53 80 1007.5
20260509001105 12 210 1.6 4.8 0.18 0.51 0.51 81 1007.5
20260509000605 12 286 3.2 4.8 0.20 0.51 0.51 81 1007.4
20260508234605 12 208 3.2 12.9 0.20 0.46 0.46 81 1007.9
20260508234105 12 254 3.2 8.0 0.20 0.43 0.43 81 1007.9
20260508233604 12 245 1.6 4.8 0.18 0.41 0.41 81 1007.8
20260508233105 12 212 3.2 4.8 0.18 0.38 0.38 81 1008.0
20260508231605 12 231 1.6 4.8 0.15 0.33 0.33 82 1008.0
20260508231105 12 253 1.6 4.8 0.18 0.33 0.33 82 1007.7
20260508230605 12 245 3.2 4.8 0.18 0.30 0.30 82 1007.7
20260508224604 13 274 3.2 4.8 0.15 0.25 0.25 82 1008.3
20260508224104 13 337 0.0 3.2 0.15 0.23 0.23 82 1008.3
20260508223605 13 328 1.6 3.2 0.18 0.23 0.23 83 1008.3
20260508223104 13 328 1.6 3.2 0.18 0.20 0.20 83 1007.8
20260508221605 13 328 0.0 1.6 0.18 0.18 0.18 83 1008.0
20260508221104 13 328 0.0 1.6 0.15 0.15 0.15 83 1008.0
20260508220104 13 328 0.0 3.2 0.13 0.13 0.13 83 1008.1
20260508214605 13 288 0.0 4.8 0.10 0.10 0.10 83 1008.4
20260508214105 13 294 1.6 4.8 0.08 0.08 0.08 83 1008.4
20260508213604 13 336 3.2 8.0 0.05 0.05 0.05 83 1008.4
20260508213105 14 289 3.2 8.0 0.03 0.03 0.03 83 1008.5
20260508211605 15 356 1.6 8.0 0.00 0.00 0.00 81 1008.1
20260508211105 15 351 3.2 8.0 0.00 0.00 0.00 81 1007.9
20260508210604 15 23 3.2 11.3 0.00 0.00 0.00 80 1007.9
20260508210105 15 328 1.6 14.5 0.00 0.00 0.00 77 1007.9
20260508204605 16 299 4.8 11.3 0.00 0.00 0.00 69 1007.8
20260508204104 17 305 3.2 11.3 0.00 0.00 0.00 66 1007.8
20260508203606 17 282 4.8 11.3 0.00 0.00 0.00 64 1007.7
20260508203105 17 279 3.2 11.3 0.00 0.00 0.00 63 1007.7
20260508201604 17 245 3.2 11.3 0.00 0.00 0.00 58 1007.7
20260508200105 18 271 4.8 19.3 0.00 0.00 0.00 57 1007.9
20260508194604 18 229 3.2 12.9 0.00 0.00 0.00 57 1007.8
20260508193604 18 287 4.8 16.1 0.00 0.00 0.00 56 1008.1
20260508193105 18 271 4.8 16.1 0.00 0.00 0.00 56 1008.1
20260508191606 18 267 3.2 19.3 0.00 0.00 0.00 58 1008.3
20260508184604 17 261 3.2 8.0 0.00 0.00 0.00 61 1009.0
20260508184104 17 152 3.2 4.8 0.00 0.00 0.00 61 1009.2
20260508183605 17 276 3.2 12.9 0.00 0.00 0.00 60 1009.2
20260508183105 17 292 1.6 14.5 0.00 0.00 0.00 60 1009.2
20260508181604 17 254 6.4 16.1 0.00 0.00 0.00 60 1009.4
20260508181105 17 273 6.4 16.1 0.00 0.00 0.00 59 1009.4
20260508180604 17 251 6.4 19.3 0.00 0.00 0.00 59 1009.4
20260508180105 17 260 6.4 19.3 0.00 0.00 0.00 59 1009.5
20260508174606 17 202 6.4 19.3 0.00 0.00 0.00 58 1009.6
20260508174104 17 240 6.4 19.3 0.00 0.00 0.00 58 1009.6
20260508173604 17 245 8.0 19.3 0.00 0.00 0.00 57 1009.6
20260508173104 17 265 6.4 20.9 0.00 0.00 0.00 57 1009.8
20260508171105 17 259 6.4 20.9 0.00 0.00 0.00 57 1010.0
20260508170104 17 274 4.8 22.5 0.00 0.00 0.00 56 1010.0
20260508164604 17 245 9.7 20.9 0.00 0.00 0.00 56 1010.3
20260508164104 17 254 9.7 22.5 0.00 0.00 0.00 54 1010.3
20260508163604 17 294 4.8 22.5 0.00 0.00 0.00 55 1010.5
20260508163104 18 227 9.7 22.5 0.00 0.00 0.00 54 1010.5
20260508161605 18 209 9.7 20.9 0.00 0.00 0.00 53 1010.7
20260508161104 18 227 11.3 22.5 0.00 0.00 0.00 52 1010.8
20260508160104 18 269 8.0 25.7 0.00 0.00 0.00 56 1010.8
20260508154604 17 244 8.0 22.5 0.00 0.00 0.00 58 1010.8
20260508154104 17 201 3.2 19.3 0.00 0.00 0.00 58 1010.9
20260508153104 17 268 8.0 19.3 0.00 0.00 0.00 56 1010.9
20260508151605 17 244 6.4 19.3 0.00 0.00 0.00 58 1010.8
20260508151104 16 274 6.4 19.3 0.00 0.00 0.00 58 1010.9
20260508150604 16 244 4.8 19.3 0.00 0.00 0.00 57 1010.9
20260508150105 17 224 8.0 20.9 0.00 0.00 0.00 56 1010.9
20260508144603 16 252 9.7 20.9 0.00 0.00 0.00 57 1011.0
20260508144104 16 228 8.0 20.9 0.00 0.00 0.00 58 1011.0
20260508143604 16 292 6.4 29.0 0.00 0.00 0.00 57 1011.0
20260508143104 16 278 9.7 29.0 0.00 0.00 0.00 57 1011.1
20260508141604 15 286 6.4 24.1 0.00 0.00 0.00 60 1011.4
20260508141104 15 285 11.3 24.1 0.00 0.00 0.00 59 1011.4
20260508140605 15 254 6.4 24.1 0.00 0.00 0.00 59 1011.3
20260508140105 15 249 9.7 24.1 0.00 0.00 0.00 60 1011.5
20260508134604 14 244 4.8 19.3 0.00 0.00 0.00 63 1011.5
20260508134104 14 259 4.8 16.1 0.00 0.00 0.00 63 1011.6
20260508133604 13 269 6.4 19.3 0.00 0.00 0.00 63 1011.5
20260508133104 13 252 8.0 19.3 0.00 0.00 0.00 64 1011.5
20260508131605 12 283 6.4 16.1 0.00 0.00 0.00 64 1011.6
20260508131104 12 253 6.4 19.3 0.00 0.00 0.00 64 1011.7
20260508130604 12 221 8.0 19.3 0.00 0.00 0.00 64 1011.7
20260508130104 12 225 8.0 16.1 0.00 0.00 0.00 65 1011.6
20260508124604 11 250 4.8 20.9 0.00 0.00 0.00 66 1011.6
20260508123104 11 252 8.0 20.9 0.00 0.00 0.00 67 1011.4
20260508121604 10 285 8.0 16.1 0.00 0.00 0.00 69 1011.5
20260508121104 10 242 6.4 16.1 0.00 0.00 0.00 69 1011.5
20260508120603 10 254 3.2 16.1 0.00 0.00 0.00 70 1011.5
20260508120104 10 251 6.4 16.1 0.00 0.00 0.00 69 1011.5
20260508114603 9 258 4.8 12.9 0.00 0.00 0.00 71 1011.5
20260508114104 9 241 4.8 9.7 0.00 0.00 0.00 71 1011.5
20260508113604 9 278 3.2 8.0 0.00 0.00 0.00 70 1011.4
20260508113104 9 3 0.0 0.0 0.00 0.00 0.00 70 1011.4
20260508111604 8 3 0.0 0.0 0.00 0.00 0.00 70 1011.3
20260508111105 8 3 0.0 0.0 0.00 0.00 0.00 70 1011.2
20260508110604 8 3 0.0 0.0 0.00 0.00 0.00 70 1011.3
20260508110104 8 3 0.0 0.0 0.00 0.00 0.00 69 1011.3
20260508104603 8 3 0.0 0.0 0.00 0.00 0.00 70 1011.2
20260508103604 9 3 0.0 0.0 0.00 0.00 0.00 69 1011.3
20260508103104 9 3 0.0 0.0 0.00 0.00 0.00 69 1011.2
20260508101106 9 3 0.0 0.0 0.00 0.00 0.00 69 1011.2
20260508100605 9 3 0.0 0.0 0.00 0.00 0.00 68 1011.1
20260508100105 9 3 0.0 0.0 0.00 0.00 0.00 68 1011.1
20260508094606 9 3 0.0 0.0 0.00 0.00 0.00 69 1011.1
20260508094105 9 3 0.0 0.0 0.00 0.00 0.00 69 1011.1
20260508093605 9 3 0.0 0.0 0.00 0.00 0.00 70 1011.1
20260508093106 9 3 0.0 0.0 0.00 0.00 0.00 69 1011.1
20260508091606 10 3 0.0 0.0 0.00 0.00 0.00 69 1011.1
20260508091105 10 3 0.0 0.0 0.00 0.00 0.00 69 1011.1
20260508090606 10 3 0.0 0.0 0.00 0.00 0.00 70 1011.1